User: anonymous   Login
Location: Unspecified
(44.8237°N, 0.6475°W)
Time: 21:24:19
(UTC+02:00)
Language:

ISS - Orbit

View from above orbital plane
View from above orbital plane
View from above satellite
View from above satellite

Ground track
Ground track

The orbit data is extracted from the following two-line orbital elements,

1 25544U 98067A   21136.50525436  .00001472  00000-0  34859-4 0  9990
2 25544  51.6433 139.4273 0003066   8.5269 175.7036 15.49011320283680
Epoch (UTC): 16 May 2021 12:07:33
Eccentricity: 0.0003066
inclination: 51.6433°
perigee height: 417 km
apogee height: 422 km
right ascension of ascending node: 139.4273°
argument of perigee: 8.5269°
revolutions per day: 15.49011320
mean anomaly at epoch: 175.7036°
orbit number at epoch: 28368

The dashed part of the orbit path shows where the satellite is in the earth's shadow,  

DLR